Total_Precipitation_Accumulation
0.03 0.04 0.05 0.05 0.08 0.07 0.06 0.08 0.10 0.12 0.12 0.14 0.21 0.35 0.48 0.63 0.70 0.89 1.12 1.19 1.24 1.45 1.96 2.39 2.51 2.60 2.92 3.15 3.31 3.27 3.48 3.88 4.15 4.57 4.61 4.87 5.37 5.70 5.80 5.86 5.83 5.76 5.70 5.71
0.05 0.05 0.05 0.04 0.05 0.05 0.04 0.07 0.10 0.13 0.15 0.17 0.29 0.47 0.52 0.65 0.78 1.04 1.27 1.30 1.27 1.46 1.81 2.26 2.47 2.81 3.11 3.21 3.43 3.53 3.65 4.14 4.64 5.23 5.80 6.20 6.65 6.67 6.77 6.70 6.55 6.21 6.07 6.01
0.06 0.05 0.03 0.03 0.03 0.04 0.04 0.06 0.09 0.12 0.18 0.22 0.33 0.59 0.68 0.78 0.92 1.12 1.24 1.22 1.29 1.54 1.87 2.15 2.45 2.82 3.13 3.26 3.47 3.61 3.93 4.58 5.45 6.05 6.56 7.12 7.47 7.16 6.86 6.56 6.45 6.34 6.29 6.23
0.05 0.03 0.03 0.04 0.04 0.04 0.06 0.07 0.08 0.10 0.18 0.31 0.35 0.69 1.00 1.10 1.24 1.17 1.22 1.35 1.50 1.66 1.84 2.11 2.40 2.69 2.95 3.28 3.41 3.64 4.28 4.97 5.63 6.28 6.93 7.49 7.74 7.73 7.47 6.89 6.41 6.02 5.76 5.57
0.06 0.04 0.04 0.05 0.06 0.05 0.07 0.08 0.09 0.12 0.19 0.31 0.36 0.67 1.24 1.52 1.58 1.49 1.52 1.58 1.61 1.64 1.79 2.00 2.24 2.47 2.58 2.96 3.42 3.75 4.40 5.10 5.75 6.53 7.28 7.68 7.87 7.85 7.48 6.70 5.91 5.37 5.07 4.81
0.06 0.06 0.06 0.06 0.05 0.06 0.07 0.10 0.14 0.19 0.27 0.42 0.42 0.67 1.37 1.79 1.90 1.86 1.80 1.78 1.71 1.66 1.66 1.75 2.00 2.17 2.43 2.81 3.25 3.75 4.12 4.75 5.51 6.14 6.68 6.85 7.00 6.94 6.51 6.08 5.58 5.20 4.72 4.26
0.08 0.08 0.08 0.08 0.06 0.07 0.08 0.17 0.37 0.53 0.59 0.55 0.43 0.71 1.41 1.72 1.64 1.64 1.66 1.74 1.72 1.57 1.60 1.83 2.07 2.04 2.34 2.69 3.12 3.61 4.03 4.46 5.02 5.55 6.03 6.26 6.42 6.34 5.85 5.40 4.96 4.55 4.05 3.66
0.16 0.13 0.09 0.07 0.08 0.08 0.08 0.17 0.44 0.68 0.71 0.72 0.69 1.10 1.64 1.69 1.53 1.38 1.38 1.44 1.58 1.62 1.65 1.75 1.86 1.96 2.29 2.59 2.89 3.31 3.65 4.04 4.28 4.54 4.96 5.25 5.44 5.32 4.96 4.48 3.98 3.67 3.35 3.02
0.24 0.20 0.09 0.06 0.07 0.09 0.12 0.16 0.25 0.34 0.42 0.73 1.12 1.45 1.84 1.81 1.71 1.52 1.36 1.36 1.50 1.49 1.55 1.69 1.84 1.99 2.20 2.56 3.03 3.25 3.28 3.48 3.70 3.99 4.16 4.21 4.32 4.24 4.01 3.70 3.37 3.07 2.77 2.48
0.22 0.26 0.12 0.08 0.07 0.10 0.11 0.15 0.21 0.35 0.68 0.98 1.28 1.83 2.21 2.30 2.28 2.12 1.69 1.53 1.50 1.52 1.57 1.66 1.78 2.01 2.09 2.14 2.53 2.91 2.97 3.07 3.17 3.31 3.38 3.30 3.41 3.33 3.28 3.11 2.85 2.59 2.40 2.18
0.23 0.29 0.20 0.12 0.13 0.16 0.17 0.18 0.23 0.36 0.51 0.96 1.42 2.07 2.29 2.59 2.68 2.55 2.12 1.91 1.90 1.85 1.74 1.71 1.73 1.80 1.95 2.03 2.19 2.46 2.70 2.74 2.82 2.99 3.00 2.89 2.99 2.98 2.99 2.85 2.65 2.51 2.47 2.34
0.25 0.31 0.31 0.22 0.18 0.14 0.16 0.21 0.31 0.57 0.63 0.72 1.26 2.28 2.57 2.73 2.63 2.35 2.15 1.98 1.88 1.78 1.65 1.62 1.59 1.59 1.67 1.86 2.10 2.27 2.42 2.44 2.53 2.67 2.79 2.85 2.89 2.81 2.71 2.52 2.41 2.33 2.21 2.07
0.26 0.43 0.68 0.67 0.53 0.31 0.24 0.24 0.30 0.40 0.59 0.79 1.37 2.54 2.98 2.87 2.72 2.39 2.26 2.17 2.09 1.99 1.77 1.65 1.58 1.59 1.61 1.71 1.82 2.00 2.24 2.35 2.38 2.40 2.40 2.58 2.62 2.50 2.36 2.27 2.23 2.17 2.04 1.99
0.27 0.44 0.82 1.30 1.04 0.63 0.42 0.32 0.36 0.53 0.84 1.00 1.33 1.93 2.28 2.38 2.43 2.43 2.55 2.60 2.39 2.18 1.92 1.68 1.63 1.62 1.62 1.70 1.73 1.78 1.92 2.11 2.26 2.34 2.49 2.55 2.48 2.35 2.25 2.08 1.90 1.81 1.75 1.81
0.33 0.52 0.50 0.54 0.54 0.56 0.57 0.50 0.47 0.59 0.71 1.10 1.44 1.83 2.17 2.24 2.24 2.28 2.47 2.39 2.11 1.95 1.79 1.66 1.66 1.72 1.71 1.66 1.65 1.67 1.84 1.93 2.15 2.27 2.27 2.23 2.17 2.13 2.11 2.05 1.89 1.71 1.60 1.54
0.41 0.57 0.57 0.59 0.48 0.57 0.58 0.57 0.62 0.71 0.84 1.12 1.47 1.98 2.24 2.24 2.23 2.26 2.36 2.33 2.11 1.81 1.68 1.65 1.60 1.69 1.64 1.57 1.51 1.47 1.62 1.68 1.84 1.99 1.99 1.94 1.93 2.02 1.99 1.92 1.79 1.68 1.59 1.52
0.52 0.75 0.93 0.88 0.57 0.80 1.09 0.86 0.90 1.02 1.06 1.27 1.71 1.94 2.03 2.14 2.16 2.20 2.29 2.34 2.21 1.94 1.84 1.86 1.89 1.92 1.76 1.63 1.55 1.57 1.62 1.66 1.73 1.82 1.78 1.81 1.83 1.81 1.80 1.65 1.56 1.60 1.64 1.53
0.54 0.83 0.97 0.93 1.07 1.63 1.43 0.83 0.90 1.11 1.15 1.18 1.31 1.44 1.63 1.82 1.93 2.08 2.23 2.34 2.32 2.20 2.17 2.18 2.14 1.99 1.81 1.69 1.66 1.67 1.63 1.67 1.76 1.74 1.66 1.62 1.65 1.61 1.60 1.59 1.56 1.55 1.55 1.49
0.40 0.78 1.09 1.26 1.58 1.75 1.47 0.91 0.87 1.26 1.53 1.23 1.21 1.22 1.25 1.30 1.52 1.96 2.06 2.11 2.23 2.19 2.14 2.07 2.01 1.90 1.77 1.64 1.59 1.57 1.58 1.56 1.56 1.50 1.47 1.40 1.41 1.48 1.50 1.48 1.56 1.55 1.46 1.40
0.44 0.65 1.18 1.48 1.90 2.19 1.88 0.94 0.71 1.20 2.01 1.44 1.24 1.30 1.31 1.47 1.78 1.82 1.66 1.64 1.73 1.74 1.74 1.80 1.83 1.76 1.64 1.52 1.43 1.44 1.49 1.47 1.41 1.37 1.39 1.31 1.29 1.34 1.40 1.43 1.47 1.42 1.36 1.33
0.88 0.98 1.22 1.50 1.93 2.11 1.30 0.80 0.94 1.99 2.40 1.67 1.37 1.39 1.52 1.66 1.65 1.35 1.23 1.26 1.34 1.48 1.48 1.49 1.66 1.72 1.56 1.35 1.29 1.38 1.39 1.38 1.24 1.22 1.30 1.32 1.30 1.29 1.31 1.34 1.38 1.34 1.30 1.32
1.10 1.28 1.37 1.57 2.08 2.26 1.19 0.98 1.52 1.91 1.51 1.41 1.40 1.35 1.36 1.26 1.10 1.03 1.05 1.08 1.09 1.26 1.37 1.35 1.49 1.49 1.33 1.23 1.27 1.35 1.34 1.24 1.17 1.23 1.35 1.35 1.34 1.23 1.20 1.37 1.40 1.34 1.31 1.28
1.01 1.19 1.50 1.78 2.06 1.72 1.14 1.13 1.22 1.21 1.24 1.16 1.13 1.04 0.98 0.99 0.96 0.93 0.99 1.05 1.07 1.15 1.25 1.23 1.31 1.32 1.22 1.19 1.26 1.34 1.30 1.20 1.26 1.35 1.39 1.42 1.33 1.30 1.29 1.37 1.38 1.33 1.30 1.22
0.98 0.79 1.06 1.43 1.43 1.15 1.01 0.96 0.96 0.95 1.04 1.01 0.95 0.97 0.84 0.86 0.92 0.94 0.97 1.10 1.17 1.20 1.18 1.18 1.27 1.25 1.19 1.13 1.14 1.19 1.11 1.11 1.28 1.44 1.42 1.41 1.41 1.39 1.34 1.30 1.24 1.21 1.20 1.15
0.96 0.96 1.19 1.41 1.23 1.02 0.88 0.79 0.82 0.89 0.89 0.88 0.93 0.97 0.90 0.87 0.99 0.98 0.95 1.02 1.09 1.14 1.15 1.18 1.29 1.29 1.15 1.06 1.03 1.03 1.07 1.16 1.32 1.37 1.35 1.33 1.35 1.33 1.30 1.19 1.11 1.10 1.04 0.93
0.91 1.11 1.36 1.42 1.16 1.20 1.07 0.82 0.75 0.90 1.01 0.95 0.94 0.97 0.88 0.86 0.97 1.04 1.06 1.03 1.05 1.11 1.13 1.18 1.18 1.14 1.06 0.95 0.92 0.96 1.01 1.06 1.21 1.22 1.19 1.18 1.23 1.24 1.18 1.13 1.04 0.94 0.84 0.83